Weather History for Pine Ridge, SD

Change the Weather History Date:

Thursday, August 14, 2014

  Actual Average Record
Temperature  
Mean Temperature 80 °F 73 °F  
Max Temperature 94 °F 89 °F 98 °F (1999)
Min Temperature 65 °F 57 °F 46 °F (2006)
Degree Days  
Heating Degree Days 0 1  
Month to date heating degree days 0 2  
Since 1 June heating degree days 136 101  
Since 1 July heating degree days 28 14  
Cooling Degree Days 15 8  
Month to date cooling degree days 94 131  
Year to date cooling degree days 352 539  
Since 1 June cooling degree days 327 522  
Growing Degree Days 30 (Base 50)    
Moisture  
Dew Point 62 °F    
Average Humidity 60    
Maximum Humidity 87    
Minimum Humidity 32    
Precipitation  
Precipitation 0.04 in 0.06 in 0.40 in (2007)
Month to date precipitation 0.25 0.94  
Year to date precipitation 14.95 12.88  
Sea Level Pressure  
Sea Level Pressure 29.85 in    
Wind  
Wind Speed 7 mph (South)    
Max Wind Speed 28 mph    
Max Gust Speed 38 mph    
Visibility 10 miles    
Events Rain , Thunderstorm    
T = Trace of Precipitation, MM = Missing Value Source: NWS Daily Summary

Daily Weather History Graph

Daily Weather History Graph

Search for Another Location

Airport:

Trip Planner

Search our weather history database for the weather conditions in past years. The results will help you decide how hot, cold, wet, or windy it might be!

Date:

Astronomy

Aug. 14, 2014 Rise Set
Actual Time 5:54 AM MDT 7:53 PM MDT
Civil Twilight 5:24 AM MDT 8:24 PM MDT
Nautical Twilight 4:46 AM MDT 9:02 PM MDT
Astronomical Twilight 4:05 AM MDT 9:42 PM MDT
Moon 10:09 PM MDT (8/14) 10:42 AM MDT (8/14)
Length of Visible Light 15h 00m
Length of Day
13h 58m
Waning Gibbous, 78% of the Moon is Illuminated
Aug 14
Waning Gibbous
Aug 17
Last Quarter
Aug 25
New
Sep 2
First Quarter
Sep 8
Full

Hourly Weather History & Observations

Time (MDT) Temp. Heat Index Dew Point Humidity Pressure Visibility Wind Dir Wind Speed Gust Speed Precip Events Conditions
12:52 AM 78.1 °F - 60.1 °F 54% 29.85 in 10.0 mi South 19.6 mph 26.5 mph N/A   Clear
1:52 AM 77.0 °F - 60.1 °F 56% 29.85 in 10.0 mi SW 13.8 mph 28.8 mph N/A   Clear
2:03 AM 77.0 °F - 60.1 °F 56% 29.99 in 9.0 mi WSW 15.0 mph 28.8 mph N/A   Clear
2:52 AM 77.0 °F - 60.1 °F 56% 29.86 in 10.0 mi SSW 10.4 mph - N/A   Clear
3:52 AM 71.1 °F - 61.0 °F 70% 29.86 in 10.0 mi ESE 4.6 mph - N/A   Clear
4:52 AM 66.9 °F - 61.0 °F 81% 29.86 in 10.0 mi ESE 6.9 mph - N/A   Clear
5:52 AM 66.9 °F - 61.0 °F 81% 29.86 in 10.0 mi Calm Calm - N/A   Clear
6:52 AM 66.0 °F - 62.1 °F 87% 29.87 in 10.0 mi Variable 4.6 mph - N/A   Clear
7:52 AM 69.1 °F - 63.0 °F 81% 29.86 in 10.0 mi SSW 13.8 mph 21.9 mph N/A   Clear
8:52 AM 73.9 °F - 64.0 °F 71% 29.85 in 10.0 mi SSW 10.4 mph - N/A   Clear
9:52 AM 79.0 °F - 66.0 °F 64% 29.85 in 10.0 mi South 6.9 mph - N/A   Clear
10:52 AM 84.0 °F 85.8 °F 64.9 °F 53% 29.83 in 10.0 mi WSW 6.9 mph - N/A   Clear
11:52 AM 84.9 °F 85.9 °F 63.0 °F 48% 29.82 in 10.0 mi SW 4.6 mph - N/A   Clear
12:52 PM 91.0 °F 91.5 °F 62.1 °F 38% 29.79 in 10.0 mi Variable 5.8 mph - N/A   Clear
1:52 PM 91.9 °F 91.8 °F 61.0 °F 35% 29.78 in 10.0 mi Variable 4.6 mph - N/A   Partly Cloudy
2:52 PM 93.0 °F 92.3 °F 59.0 °F 32% 29.76 in 10.0 mi SSW 12.7 mph 18.4 mph N/A   Partly Cloudy
3:05 PM 89.1 °F 88.8 °F 60.1 °F 38% 29.88 in 10.0 mi SW 9.2 mph - N/A Thunderstorm Scattered Clouds
3:29 PM 89.1 °F 88.2 °F 59.0 °F 36% 29.89 in 10.0 mi WSW 11.5 mph - N/A   Mostly Cloudy
3:40 PM 91.0 °F 90.0 °F 57.9 °F 33% 29.88 in 9.0 mi West 6.9 mph - N/A Thunderstorm Scattered Clouds
3:52 PM 89.1 °F 88.0 °F 57.9 °F 35% 29.79 in 10.0 mi SSW 11.5 mph 19.6 mph N/A Thunderstorm Thunderstorm
4:12 PM 79.0 °F - 57.9 °F 48% 29.90 in 10.0 mi SSE 19.6 mph 31.1 mph N/A Thunderstorm Thunderstorm
4:30 PM 77.0 °F - 60.1 °F 56% 29.91 in 10.0 mi SSE 16.1 mph 26.5 mph 0.00 in Rain , Thunderstorm Light Rain
4:37 PM 75.0 °F - 62.1 °F 64% 29.90 in 10.0 mi SE 17.3 mph - 0.00 in Rain Light Rain
4:52 PM 75.9 °F - 62.1 °F 62% 29.81 in 10.0 mi SE 11.5 mph - 0.00 in   Partly Cloudy
5:52 PM 77.0 °F - 64.0 °F 64% 29.81 in 10.0 mi East 4.6 mph - N/A   Clear
6:52 PM 75.9 °F - 64.9 °F 69% 29.81 in 10.0 mi ENE 6.9 mph - N/A   Clear
7:52 PM 73.0 °F - 66.9 °F 81% 29.83 in 10.0 mi Calm Calm - 0.00 in Rain Light Rain
8:52 PM 73.0 °F - 63.0 °F 71% 29.83 in 10.0 mi SE 3.5 mph - 0.00 in   Clear
9:52 PM 73.9 °F - 60.1 °F 62% 29.83 in 10.0 mi SSW 9.2 mph - N/A   Mostly Cloudy
10:52 PM 69.1 °F - 64.0 °F 84% 29.85 in 10.0 mi SW 9.2 mph - 0.01 in   Overcast
11:52 PM 66.9 °F - 64.0 °F 90% 29.86 in 10.0 mi SW 3.5 mph - 0.02 in Rain Light Rain